Location: Llanfyndd
(51.9281°N, 4.0989°W)
Time: 08:00:31
(UTC+00:00)

Daily predictions for brighter satellites

Satellite Brightness Start Highest point End
(mag) Time Altitude Azimuth Time Altitude Azimuth Time Altitude Azimuth
STARLINK-1201 3.8 21:04:38 10° W 21:08:47 81° N 21:12:57 10° E
STARLINK-1119 3.8 21:05:14 10° WNW 21:09:20 61° SSW 21:13:25 10° SE
Meteor 1-4 Rocket 4.3 21:06:30 10° SW 21:09:42 35° WNW 21:12:57 10° N
Cosmos 1437 Rocket 2.8 21:07:03 10° S 21:10:47 59° E 21:14:34 10° NNE
STARLINK-1240 3.6 21:07:00 10° SW 21:11:05 61° SSE 21:15:11 10° ENE
Cosmos 1378 4.4 21:10:26 10° SE 21:13:31 25° E 21:16:35 10° NE
ISS -1.4 21:11:55 10° WSW 21:13:46 14° SW 21:15:38 10° S
STARLINK-1206 3.8 21:09:38 10° W 21:13:47 79° N 21:17:56 10° E
STARLINK-1114 3.8 21:10:11 10° WNW 21:14:16 58° SSW 21:18:20 10° SE
Meteor 1-15 Rocket 4.4 21:09:01 10° N 21:14:59 78° ENE 21:20:55 10° SSE
STARLINK-1203 3.6 21:11:47 10° WSW 21:15:57 64° SSE 21:20:07 10° ENE
STARLINK-1216 3.6 21:11:56 10° WSW 21:16:03 64° SSE 21:20:09 10° ENE
Lacrosse 5 3.5 21:12:35 10° WNW 21:16:40 25° SW 21:20:44 10° S
Cosmos 304 Rocket 4.0 21:12:38 10° S 21:17:15 50° ESE 21:21:54 10° NNE
NOSS 8 (E) 4.3 21:15:06 10° SSW 21:18:11 52° SE 21:21:11 10° NE
USA 215 3.9 21:11:46 10° E 21:18:11 59° N 21:24:35 10° WNW
STARLINK-1205 3.8 21:14:36 10° W 21:18:45 78° N 21:22:55 10° E
STARLINK-1130 (DARKSAT) 3.9 21:15:11 10° WNW 21:19:14 55° SSW 21:23:18 10° SE
STARLINK-1237 3.6 21:16:54 10° WSW 21:21:01 67° SSE 21:25:09 10° ENE
CENTAUR R/B 3.6 21:13:28 10° NW 21:21:03 61° NE 21:29:36 10° ESE
NOSS 2-2 (D) 4.2 21:18:34 10° S 21:21:36 26° ESE 21:24:56 10° ENE
CZ-2C R/B 3.7 21:17:17 10° N 21:22:43 52° WNW 21:28:07 10° SW
STARLINK-1218 3.8 21:19:36 10° W 21:23:45 77° N 21:27:55 10° E
STARLINK-1084 4.0 21:20:10 10° WNW 21:24:12 52° SSW 21:28:14 10° SE
ATLAS 3B R/B 3.8 21:17:56 10° NW 21:24:13 40° NNE 21:30:40 10° E
STARLINK-1202 3.6 21:21:52 10° WSW 21:25:59 70° SSE 21:30:08 10° ENE
Cosmos 1674 Rocket 3.6 21:21:37 10° S 21:26:00 75° E 21:30:25 10° NNE
SL-27 R/B 3.8 21:22:49 10° N 21:26:03 30° ENE 21:29:14 10° ESE
NOSS 3-2 (C) 4.3 21:19:16 10° NW 21:26:27 66° NE 21:34:39 10° ESE
STARLINK-1254 3.8 21:24:35 10° W 21:28:44 77° N 21:32:54 10° E
Cosmos 1378 Rocket 3.6 21:24:32 10° S 21:28:53 63° E 21:33:13 10° NNE
Cosmos 1766 3.8 21:25:05 10° N 21:28:57 46° ENE 21:32:47 10° SSE
STARLINK-1098 4.0 21:25:09 10° WNW 21:29:10 50° SSW 21:33:11 10° SE
STARLINK-1231 3.8 21:29:33 10° W 21:33:42 76° N 21:37:52 10° E
STARLINK-1123 4.1 21:30:07 10° WNW 21:34:07 47° SSW 21:37:56 11° SE
STARLINK-1246 3.5 21:31:49 10° WSW 21:35:57 76° SSE 21:40:07 10° ENE
Cosmos 1900 4.4 21:31:03 10° NW 21:36:07 86° SW 21:41:01 11° SE
IGS 5A 3.9 21:32:50 10° S 21:36:56 61° W 21:41:05 10° NNW
Cosmos 2297 3.7 21:32:26 10° SSW 21:38:04 67° ESE 21:43:46 10° NE
Cosmos 1943 Rocket 2.9 21:33:11 10° S 21:38:07 34° ESE 21:43:06 10° NE
STARLINK-1232 3.8 21:34:33 10° W 21:38:43 75° N 21:42:53 10° E
NOSS 2-2 (E) 3.5 21:35:16 10° SSW 21:38:43 45° SE 21:42:42 10° NE
STARLINK-1097 4.2 21:35:09 10° WNW 21:39:06 44° SSW 21:42:45 12° SE
STARLINK-1224 3.5 21:36:47 10° WSW 21:40:55 79° SSE 21:45:05 10° ENE
Cosmos 2082 Rocket 3.6 21:36:08 10° NW 21:41:09 32° WSW 21:46:08 10° SSW
Cosmos 332 Rocket 4.1 21:36:45 10° SSW 21:41:40 73° WNW 21:46:34 10° NNE
Landsat 7 4.3 21:37:40 10° S 21:42:21 59° W 21:47:05 10° NNW
SeaSat 1 4.4 21:41:27 10° E 21:42:38 11° E 21:43:50 10° ESE
Cosmos 1452 Rocket 4.2 21:37:53 10° SW 21:43:07 61° WNW 21:48:23 10° NNE
STARLINK-1208 3.8 21:39:32 10° W 21:43:41 75° N 21:47:50 10° E
SAR-Lupe-2 3.7 21:40:26 10° NNE 21:44:03 81° WNW 21:47:39 10° SSW
STARLINK-1099 4.2 21:40:08 10° WNW 21:44:03 42° SSW 21:47:31 13° SE
Cosmos 1461 2.9 21:41:38 10° SW 21:45:50 85° SE 21:50:17 10° NE
STARLINK-1225 3.6 21:41:46 10° WSW 21:45:54 82° SSE 21:50:05 10° ENE
STARLINK-1212 2.9 21:43:53 10° WNW 21:47:00 81° N 21:50:07 10° E
STARLINK-1105 2.9 21:44:21 10° WNW 21:47:28 81° N 21:50:34 10° E
STARLINK-1247 2.9 21:45:13 10° WNW 21:48:22 82° NNE 21:51:28 10° E
Cosmos 1975 Rocket 3.8 21:44:36 11° SSE 21:48:29 37° E 21:52:33 10° NNE
STARLINK-1271 3.8 21:44:32 10° W 21:48:42 75° N 21:52:51 10° E
STARLINK-1227 2.9 21:45:43 10° WNW 21:48:50 82° NNE 21:51:57 10° E
STARLINK-1104 4.3 21:45:07 10° W 21:49:00 39° SSW 21:52:18 13° SE
Meteor 1-23 Rocket 4.3 21:43:49 10° S 21:49:31 89° ESE 21:55:11 10° NNE
BREEZE-M DEB (TANK) 4.3 21:32:09 10° SW 21:49:32 52° SSE 21:54:01 10° E
STARLINK-1226 2.9 21:46:34 10° WNW 21:49:42 82° N 21:52:49 10° E
BREEZE-M DEB (TANK) 3.0 21:45:51 10° W 21:50:36 64° S 21:54:03 10° E
STARLINK-1215 2.9 21:47:28 10° WNW 21:50:36 83° N 21:53:44 10° E
STARLINK-1230 3.6 21:46:44 10° WSW 21:50:52 84° SSE 21:55:03 10° ENE
STARLINK-1217 2.9 21:49:17 10° WNW 21:52:25 84° N 21:55:33 10° E
STARLINK-1229 2.9 21:50:12 10° WNW 21:53:19 84° N 21:56:27 10° E
STARLINK-1154 3.8 21:49:32 10° W 21:53:42 75° N 21:57:51 10° E
STARLINK-1144 4.4 21:50:07 10° W 21:53:58 37° SSW 21:57:05 14° SSE
STARLINK-1270 2.9 21:51:05 10° WNW 21:54:13 85° NNE 21:57:22 10° E
Cosmos 2369 Rocket 3.0 21:49:17 10° S 21:54:18 33° ESE 21:59:19 10° NE
STARLINK-1243 3.6 21:51:43 10° WSW 21:55:52 87° SSE 22:00:03 10° ENE
STARLINK-1189 2.9 21:52:53 10° WNW 21:56:01 86° NNE 21:59:09 10° ESE
STARLINK-1188 2.9 21:53:47 10° WNW 21:56:56 86° N 22:00:04 10° ESE
STARLINK-1187 2.8 21:54:54 10° WNW 21:58:01 90° SSE 22:01:07 10° ESE
STARLINK-1197 3.8 21:54:30 10° W 21:58:39 75° N 22:02:48 10° E
SPOT 5 3.2 21:53:31 10° SSE 21:58:44 79° WSW 22:04:08 10° NNW
STARLINK-1103 4.5 21:55:06 10° W 21:58:53 35° SW 22:01:51 15° SSE
STARLINK-1191 2.8 21:56:14 10° WNW 21:59:21 87° NNE 22:02:28 10° ESE
STARLINK-1221 2.8 21:57:12 10° WNW 22:00:19 88° NNE 22:03:26 10° ESE
STARLINK-1236 3.6 21:56:41 10° WSW 22:00:51 89° SSE 22:05:00 10° ENE
STARLINK-1222 2.8 21:58:03 10° WNW 22:01:09 88° NNE 22:04:16 10° ESE
STARLINK-1214 2.8 21:58:56 10° WNW 22:02:03 89° N 22:05:10 10° ESE
NOSS 2-2 (C) 3.2 21:59:45 10° SSW 22:03:16 60° SE 22:07:21 10° NE
STARLINK-1198 3.8 21:59:29 10° W 22:03:38 76° N 22:07:47 10° E
EXPRESS MD2 3.9 22:00:25 10° SW 22:03:53 51° SSE 22:10:39 10° E
Meteor 1-22 Rocket 4.3 21:57:54 10° NNW 22:03:54 89° E 22:09:05 13° S
ERS-1 Rocket 3.4 21:59:45 10° S 22:04:44 61° WSW 22:09:45 10° NNW
Okean 2 3.5 22:02:00 12° S 22:05:45 59° E 22:09:51 10° NNE
Cosmos 2026 Rocket 4.3 22:00:23 11° SSE 22:06:15 55° E 22:12:27 10° NNE
BREEZE M DEB (TANK) 2.8 22:02:16 10° WSW 22:06:18 36° S 22:08:24 10° E
ATLAS 2AS CENTAUR R/B 3.8 22:00:42 10° S 22:07:26 31° ESE 22:14:09 10° NE
Cosmos 1953 4.1 22:04:42 10° NNE 22:07:48 21° ENE 22:10:41 11° ESE
NOSS 3-2 (A) 4.2 22:00:32 10° NW 22:07:52 70° SW 22:15:11 14° SSE
STARLINK-1228 3.1 22:04:22 10° WNW 22:07:52 78° SSW 22:11:08 12° ESE
STARLINK-1199 3.8 22:04:29 10° W 22:08:39 76° N 22:12:48 10° E
Cosmos 1805 3.7 22:04:57 10° NNW 22:08:50 59° W 22:12:24 12° S
Cosmos 1470 3.5 22:05:27 10° N 22:09:08 40° ENE 22:11:51 16° SE
STARLINK-1235 2.9 22:07:06 10° WNW 22:10:21 78° SSW 22:13:12 13° ESE
Okean 1 Rocket 4.2 22:06:09 10° NNW 22:10:22 41° W 22:14:31 10° SSW
STARLINK-1269 3.6 22:06:39 10° WSW 22:10:49 86° NNW 22:14:59 10° ENE
Resurs 01 Rocket 4.2 22:10:31 10° WSW 22:12:54 14° W 22:15:17 10° NW
Cosmos 968 Rocket 3.7 22:08:13 10° NNW 22:13:23 64° ENE 22:17:31 16° SE
STARLINK-1210 3.8 22:09:28 10° W 22:13:37 77° N 22:17:46 10° E
STARLINK-1200 3.7 22:11:37 10° W 22:15:47 85° N 22:19:57 10° ENE
Cosmos 1455 Rocket 3.0 22:11:43 10° N 22:16:06 77° E 22:19:25 17° SSE
Cosmos 2278 Rocket 4.3 22:13:16 10° WSW 22:18:15 30° NW 22:23:15 10° NNE
STARLINK-1219 3.8 22:14:26 10° W 22:18:36 78° N 22:22:45 10° E
USA 238 DEB 4.1 22:12:42 10° NW 22:19:45 61° SW 22:25:51 15° SSE
USA 238 4.1 22:12:48 10° NW 22:19:52 62° SW 22:25:58 15° SSE
STARLINK-1192 3.7 22:16:37 10° W 22:20:47 83° N 22:24:57 10° ENE
ATLAS 5 CENTAUR R/B 3.4 22:21:46 16° SE 22:21:46 16° SE 22:23:09 10° E
Nadezhda 4 Rocket 4.4 22:15:21 10° SSW 22:21:26 63° WNW 22:27:31 10° N
Cosmos 1758 3.8 22:18:42 10° N 22:22:40 50° ENE 22:25:25 18° SE
Abrixas rocket 4.3 22:22:03 10° SW 22:22:59 11° SSW 22:23:18 11° SSW
STARLINK-1211 3.7 22:19:26 10° W 22:23:36 79° N 22:27:45 10° E
SL-4 R/B 3.2 22:21:08 10° SSW 22:25:13 29° SE 22:29:22 10° E
STARLINK-1244 3.7 22:21:36 10° W 22:25:45 81° N 22:29:55 10° E
ERBS 4.0 22:24:08 10° WNW 22:27:13 35° N 22:30:19 10° ENE
Cosmos 1842 3.2 22:24:07 15° S 22:27:15 76° E 22:31:09 10° NNE
Terra 2.2 22:23:15 14° S 22:27:19 58° WSW 22:32:03 10° NNW
STARLINK-1234 3.0 22:24:52 10° WNW 22:28:07 62° SSW 22:30:16 19° SE
STARLINK-1245 3.7 22:24:25 10° W 22:28:34 80° N 22:32:44 10° E
STARLINK-1138 3.7 22:26:35 10° W 22:30:44 80° N 22:34:54 10° E
Cosmos 1503 Rocket 4.2 22:28:13 10° NNW 22:33:32 69° ENE 22:37:35 18° SE
STARLINK-1233 3.7 22:29:22 10° W 22:33:32 81° NNE 22:37:42 10° E
STARLINK-1209 3.1 22:31:02 10° WNW 22:34:17 56° SSW 22:36:13 21° SE
STARLINK-1143 3.7 22:31:33 10° W 22:35:42 79° N 22:39:52 10° E
STARLINK-1204 3.7 22:34:22 10° WNW 22:38:31 83° N 22:42:41 10° E
STARLINK-1241 3.8 22:36:34 10° W 22:40:44 78° N 22:44:53 10° E
Cosmos 1733 4.3 22:38:01 10° NNW 22:41:34 37° W 22:44:30 14° SSW
STARLINK-1238 3.6 22:39:22 10° WNW 22:43:31 85° N 22:47:42 10° E
Cosmos 2263 4.3 22:39:18 14° S 22:44:00 54° ESE 22:49:29 10° NE
STARLINK-1239 3.8 22:41:33 10° W 22:45:42 77° N 22:49:52 10° E
Cosmos 1536 Rocket 4.0 22:45:44 21° SSE 22:48:15 46° E 22:52:26 10° NNE
STARLINK-1201 3.6 22:44:20 10° WNW 22:48:30 86° N 22:52:40 10° ESE
MTI 4.3 22:46:03 10° N 22:49:09 55° WNW 22:51:36 15° SSW
JB-3 4.4 22:45:17 10° NNE 22:49:28 86° ESE 22:52:30 18° SSW
STARLINK-1240 3.8 22:46:31 10° W 22:50:41 76° N 22:54:50 10° E
Cosmos 1271 Rocket 2.8 22:49:29 22° S 22:51:49 63° E 22:55:44 10° NNE
Cosmos 1242 Rocket 2.5 22:49:25 20° SSW 22:51:54 90° NE 22:55:37 10° NNE
Cosmos 1544 Rocket 3.8 22:48:33 10° NNW 22:52:52 65° W 22:55:47 20° S
Cosmos 1354 Rocket 4.0 22:47:33 10° NNW 22:52:53 85° ENE 22:56:35 21° SSE
STARLINK-1206 3.6 22:49:20 10° WNW 22:53:30 88° N 22:57:40 10° ESE
STARLINK-60 3.5 22:52:21 22° SSW 22:53:46 34° SSE 22:56:43 10° E
Cosmos 1486 Rocket 4.5 22:49:46 10° NNW 22:54:55 52° WSW 22:58:32 19° S
Meteor 1-21 4.2 22:50:09 14° S 22:55:00 90° ENE 23:00:38 10° NNE
STARLINK-1216 3.8 22:51:30 10° W 22:55:39 76° N 22:59:48 10° E
STARLINK-1203 3.8 22:51:34 10° W 22:55:47 76° N 23:00:00 10° E
COSMOS 2455 3.6 22:52:50 19° SSE 22:56:11 34° ESE 23:01:32 10° NE
Spot 4 3.9 22:53:29 21° SSE 22:56:46 78° ENE 23:01:38 10° NNW
Cosmos 1302 Rocket 4.3 22:51:30 10° SSW 22:56:48 71° WNW 23:02:07 10° NNE
Cosmos 1833 4.2 22:51:39 10° NNW 22:57:18 74° WSW 23:01:10 21° SSE
STARLINK-1205 3.6 22:54:18 10° WNW 22:58:28 89° SSW 23:02:38 10° ESE
Cosmos 2297 Rocket 4.0 22:54:56 10° NNW 22:59:39 26° NE 23:04:20 10° E
STARLINK-1237 3.8 22:56:29 10° W 23:00:39 75° N 23:04:48 10° E
USA 215 3.3 22:54:25 10° ESE 23:01:00 86° NNE 23:07:36 10° WNW
SL-27 R/B 4.0 22:58:01 10° NW 23:01:05 26° WSW 23:03:01 17° SSW
Cosmos 1707 2.8 22:59:44 24° S 23:01:55 67° E 23:05:47 10° NNE
Lacrosse 4 Rocket 4.3 23:00:26 10° NNW 23:02:58 15° NNE 23:05:27 10° ENE
STARLINK-1218 3.5 22:59:18 10° WNW 23:03:28 87° SSW 23:07:37 10° ESE
Helios 1A 4.4 23:01:35 14° ESE 23:04:31 29° ENE 23:08:09 10° N
Cosmos 1726 2.2 23:01:44 10° N 23:05:26 66° ENE 23:07:20 27° SSE
STARLINK-1202 3.8 23:01:29 10° W 23:05:38 75° N 23:09:47 10° E
Timation 2 Rocket 4.5 23:01:09 10° NNW 23:07:26 56° NE 23:12:55 13° SE
STARLINK-1254 3.5 23:04:17 10° WNW 23:08:26 84° SSW 23:12:35 10° ESE
COSMOS 2487 2.4 23:05:25 10° NNW 23:08:54 77° ENE 23:10:32 29° SSE
ALOS 2 3.0 23:07:47 21° SE 23:10:31 54° ENE 23:14:49 10° N
CENTAUR R/B 3.4 23:04:16 10° NW 23:12:02 57° SW 23:18:17 20° SSE
STARLINK-1231 3.5 23:09:15 10° WNW 23:13:24 82° SSW 23:17:27 11° ESE
Meteor 1-16 Rocket 4.2 23:08:44 10° N 23:14:18 76° ENE 23:17:49 23° SSE
Cosmos 1867 3.8 23:10:03 10° NW 23:15:25 59° SW 23:18:45 23° SSE
ATLAS 3B R/B 2.7 23:08:46 10° NW 23:15:35 84° SW 23:21:09 17° SE
STARLINK-1246 3.8 23:11:28 10° W 23:15:38 75° N 23:19:47 10° E
EO 1 Del DPAF 3.1 23:13:31 10° NNE 23:17:20 90° W 23:19:29 24° SSW
STARLINK-1232 3.5 23:14:15 10° WNW 23:18:24 79° SSW 23:22:15 12° ESE
Cosmos 1606 Rocket 4.2 23:14:55 10° N 23:19:06 45° ENE 23:21:36 22° SE
Cosmos 1992 Rocket 3.9 23:16:14 18° SSW 23:20:11 81° ESE 23:25:26 10° NNE
STARLINK-1224 3.8 23:16:27 10° W 23:20:37 75° N 23:24:45 10° E
SeaSat 1 2.5 23:16:10 10° NE 23:21:04 61° ESE 23:24:20 21° SSW
Cosmos 1943 Rocket 3.0 23:16:15 10° SW 23:21:40 52° NW 23:27:11 10° NNE
STARLINK-1212 3.5 23:19:48 10° W 23:22:40 34° SSW 23:22:54 34° SSW
STARLINK-1105 3.6 23:20:16 10° W 23:23:08 34° SSW 23:23:20 33° SSW
STARLINK-1208 3.5 23:19:12 10° WNW 23:23:21 76° SSW 23:27:00 13° ESE
STARLINK-29 3.8 23:24:02 31° SE 23:24:02 31° SE 23:26:36 10° E
NOSS 5 (C) 4.3 23:20:42 10° NW 23:23:48 80° SW 23:25:32 28° SE
STARLINK-1247 3.6 23:21:09 10° W 23:24:01 34° SSW 23:24:13 33° SSW
STARLINK-1227 3.6 23:21:38 10° W 23:24:29 33° SSW 23:24:39 33° SSW
STARLINK-1226 3.6 23:22:30 10° W 23:25:21 33° SSW 23:25:31 33° SSW
STARLINK-1225 3.8 23:21:27 10° W 23:25:37 76° N 23:29:45 10° E
ATLAS CENTAUR R/B 2.1 23:24:17 10° NW 23:26:05 34° NNE 23:28:43 10° E
STARLINK-1215 3.6 23:23:24 10° W 23:26:15 33° SSW 23:26:23 33° SSW
STARLINK-1217 3.7 23:25:13 10° W 23:28:03 32° SSW 23:28:07 32° SSW
STARLINK-1271 3.5 23:24:13 10° WNW 23:28:21 73° SSW 23:31:49 14° ESE
STARLINK-1229 3.7 23:26:08 10° W 23:28:58 31° SSW 23:29:01 31° SSW
NOSS 3-4 (A) 3.4 23:23:53 13° SSW 23:29:17 67° SE 23:35:40 10° NE
NOSS 3-4 (C) 3.4 23:24:01 13° SSW 23:29:24 66° SE 23:35:46 10° NE
STARLINK-1270 3.7 23:27:02 10° W 23:29:52 31° SSW 23:29:53 31° SSW
STARLINK-1230 3.8 23:26:25 10° W 23:30:35 77° N 23:34:44 10° E
RESURS DK-1 3.6 23:29:48 23° SE 23:30:55 26° ESE 23:34:22 10° NE
Cosmos 292 Rocket 4.4 23:26:52 10° SW 23:31:38 55° WNW 23:36:26 10° NNE
STARLINK-1189 3.8 23:28:51 10° W 23:31:36 30° SW 23:31:36 30° SW
Meteor 2-10 4.2 23:26:43 10° NNW 23:31:41 59° W 23:34:44 23° S
STARLINK-1188 3.8 23:29:45 10° W 23:32:28 30° SW 23:32:28 30° SW
Cosmos 2315 Rocket 4.1 23:26:35 10° N 23:32:49 75° ENE 23:36:58 22° SSE
STARLINK-1154 3.5 23:29:11 10° WNW 23:33:20 70° SSW 23:36:35 16° ESE
STARLINK-1187 4.0 23:30:55 10° W 23:33:23 27° SW 23:33:23 27° SW
STARLINK-1191 3.9 23:32:13 10° W 23:34:47 28° SW 23:34:47 28° SW
STARLINK-1243 3.7 23:31:25 10° W 23:35:35 77° N 23:39:44 10° E
STARLINK-1221 3.9 23:33:10 10° W 23:35:42 28° SW 23:35:42 28° SW
Cosmos 1340 Rocket 3.1 23:32:05 10° NNW 23:36:07 62° W 23:38:06 28° S
STARLINK-1222 4.0 23:34:02 10° W 23:36:30 28° SW 23:36:30 28° SW
Cosmos 2227 Rocket 3.6 23:31:39 10° NNW 23:36:53 35° NE 23:42:04 10° ESE
Cosmos 1626 3.9 23:36:00 16° ESE 23:37:25 20° E 23:40:12 10° NE
STARLINK-1214 4.0 23:34:56 10° W 23:37:23 27° SW 23:37:23 27° SW
Cosmos 2369 Rocket 2.9 23:32:35 10° SW 23:38:07 53° NW 23:43:40 10° NNE
ATLAS CENTAUR R/B 1.4 23:35:42 24° SSW 23:38:09 60° SE 23:42:12 10° NE
STARLINK-1197 3.5 23:34:09 10° WNW 23:38:17 67° SSW 23:41:21 17° ESE
S3M 4.4 23:32:34 10° NNW 23:38:36 57° W 23:42:52 20° SSW
STARLINK-1236 3.7 23:36:23 10° W 23:40:33 78° N 23:44:42 10° E
Cosmos 1908 3.2 23:36:55 10° N 23:40:45 77° E 23:42:29 31° SSE
Cosmos 1025 Rocket 3.7 23:39:50 18° SW 23:42:49 48° WNW 23:47:01 10° N
STARLINK-1198 3.6 23:39:08 10° WNW 23:43:14 64° SSW 23:46:07 19° SE
Thor Agena Rocket 4.0 23:38:16 10° N 23:43:30 60° WNW 23:47:47 15° SW
Aureole 3 2.8 23:40:17 10° NNW 23:43:34 67° W 23:44:31 39° SSW
Cosmos 1953 3.1 23:40:37 10° NNW 23:44:25 43° W 23:46:22 24° SSW
STARLINK-1199 3.6 23:44:08 10° WNW 23:48:14 61° SSW 23:50:56 20° SE
Nimbus 7 Rocket 4.4 23:43:45 10° NNE 23:49:53 84° ESE 23:54:04 21° SSW
SL-4 R/B 1.6 23:50:08 33° W 23:50:08 33° W 23:52:04 10° NNW
STARLINK-1269 3.7 23:46:22 10° W 23:50:32 81° N 23:54:41 10° E
Cosmos 1656 Rocket 3.8 23:46:09 13° SW 23:51:12 74° WNW 23:56:47 10° NNE
Meteor 2-19 Rocket 4.5 23:47:40 21° SSW 23:52:00 80° WNW 23:58:10 10° N
STARLINK-1210 3.6 23:49:06 10° WNW 23:53:11 58° SSW 23:55:41 22° SE
KORONAS-FOTON 3.8 23:52:25 32° S 23:54:02 70° E 23:57:54 10° NNE
STARLINK-1200 3.6 23:51:20 10° WNW 23:55:31 82° NNE 23:59:40 10° E
